Weather History for Kendall, FL

Change the Weather History Date:

Saturday, August 30, 2014

  Actual Average Record
Temperature  
Mean Temperature 86 °F -  
Max Temperature 93 °F 89 °F 95 °F (1999)
Min Temperature 82 °F 71 °F 68 °F (1992)
Cooling Degree Days 22    
Growing Degree Days 36 (Base 50)    
Moisture  
Dew Point 74 °F    
Average Humidity 66    
Maximum Humidity 76    
Minimum Humidity 53    
Precipitation  
Precipitation 0.00 in - - ()
Sea Level Pressure  
Sea Level Pressure 30.08 in    
Wind  
Wind Speed 9 mph (ESE)    
Max Wind Speed 17 mph    
Max Gust Speed 24 mph    
Visibility 10 miles    
Events      
Averages and records for this station are not official NWS values.
T = Trace of Precipitation, MM = Missing Value Source: NWS Daily Summary

Daily Weather History Graph

Daily Weather History Graph

Search for Another Location

Airport:

Trip Planner

Search our weather history database for the weather conditions in past years. The results will help you decide how hot, cold, wet, or windy it might be!

Date:

Astronomy

Aug. 30, 2014 Rise Set
Actual Time 7:01 AM EDT 7:42 PM EDT
Civil Twilight 6:37 AM EDT 8:06 PM EDT
Nautical Twilight 6:10 AM EDT 8:33 PM EDT
Astronomical Twilight 5:42 AM EDT 9:01 PM EDT
Moon 11:15 AM EDT (8/30) 10:49 PM EDT (8/30)
Length of Visible Light 13h 28m
Length of Day
12h 41m
Waxing Crescent, 23% of the Moon is Illuminated
Aug 30
Waxing Crescent
Sep 2
First Quarter
Sep 8
Full
Sep 15
Last Quarter
Sep 24
New

Hourly Weather History & Observations

Time (EDT) Temp. Heat Index Dew Point Humidity Pressure Visibility Wind Dir Wind Speed Gust Speed Precip Events Conditions
12:53 AM 84.9 °F 94.1 °F 75.9 °F 74% 30.10 in 10.0 mi East 5.8 mph - N/A   Mostly Cloudy
1:53 AM 86.0 °F 96.0 °F 75.9 °F 72% 30.09 in 10.0 mi SE 8.1 mph - N/A   Scattered Clouds
2:53 AM 84.9 °F 92.1 °F 73.9 °F 69% 30.07 in 10.0 mi SE 8.1 mph - N/A   Clear
3:53 AM 84.0 °F 91.9 °F 75.0 °F 74% 30.06 in 10.0 mi SE 6.9 mph - N/A   Clear
4:53 AM 84.0 °F 91.2 °F 73.9 °F 72% 30.05 in 10.0 mi SE 9.2 mph - N/A   Clear
5:53 AM 82.9 °F 88.8 °F 73.0 °F 72% 30.07 in 10.0 mi ESE 6.9 mph - N/A   Clear
6:53 AM 82.9 °F 88.8 °F 73.0 °F 72% 30.08 in 10.0 mi ESE 4.6 mph - N/A   Clear
7:53 AM 82.0 °F 87.9 °F 73.9 °F 76% 30.09 in 10.0 mi East 6.9 mph - N/A   Clear
8:53 AM 84.9 °F 93.3 °F 75.0 °F 72% 30.09 in 10.0 mi ESE 6.9 mph - N/A   Clear
10:53 AM 90.0 °F 100.2 °F 75.0 °F 61% 30.11 in 10.0 mi East 16.1 mph - N/A   Scattered Clouds
11:53 AM 91.0 °F 101.6 °F 75.0 °F 59% 30.11 in 10.0 mi ESE 11.5 mph 18.4 mph N/A   Scattered Clouds
12:53 PM 91.9 °F 103.9 °F 75.9 °F 59% 30.10 in 10.0 mi ESE 13.8 mph 19.6 mph N/A   Scattered Clouds
1:53 PM 91.9 °F 100.7 °F 73.0 °F 54% 30.09 in 10.0 mi ESE 12.7 mph - N/A   Clear
2:53 PM 91.0 °F 101.6 °F 75.0 °F 59% 30.06 in 10.0 mi East 15.0 mph 24.2 mph N/A   Partly Cloudy
3:53 PM 91.9 °F 103.2 °F 75.0 °F 58% 30.05 in 10.0 mi ESE 17.3 mph 21.9 mph N/A   Mostly Cloudy
4:53 PM 91.0 °F 98.2 °F 72.0 °F 53% 30.04 in 10.0 mi ESE 12.7 mph - N/A   Clear
5:53 PM 90.0 °F 96.9 °F 72.0 °F 55% 30.04 in 10.0 mi East 16.1 mph - N/A   Clear
6:53 PM 87.1 °F 95.4 °F 73.9 °F 65% 30.04 in 10.0 mi East 15.0 mph - N/A   Partly Cloudy
7:53 PM 86.0 °F 95.1 °F 75.0 °F 70% 30.06 in 10.0 mi East 12.7 mph - N/A   Scattered Clouds
8:53 PM 86.0 °F 93.8 °F 73.9 °F 67% 30.07 in 10.0 mi ESE 11.5 mph - N/A   Clear
9:53 PM 84.9 °F 93.3 °F 75.0 °F 72% 30.08 in 10.0 mi East 9.2 mph - N/A   Clear
10:53 PM 86.0 °F 95.1 °F 75.0 °F 70% 30.09 in 10.0 mi ESE 8.1 mph - N/A   Clear
11:53 PM 84.9 °F 92.1 °F 73.9 °F 69% 30.09 in 10.0 mi ESE 6.9 mph - N/A   Clear